| time (UTC) | temp F | wind direction | speed knots | gust knots | rain 1hr in | rain 24hr in | rain mn in | humidity % | barometer mb |
| 20260906104550 | 57 | 160 | 0.0 | 0.0 | 0.01 | 0.11 | 0.11 | 98 | 1014.6 |
| 20260906103049 | 57 | 160 | 0.0 | 0.9 | 0.01 | 0.11 | 0.11 | 98 | 1014.4 |
| 20260906101543 | 57 | 160 | 0.0 | 0.0 | 0.01 | 0.11 | 0.11 | 98 | 1014.1 |
| 20260906100041 | 57 | 160 | 0.0 | 0.0 | 0.01 | 0.11 | 0.11 | 98 | 1014.2 |
| 20260906094545 | 57 | 159 | 0.0 | 0.9 | 0.01 | 0.10 | 0.10 | 98 | 1014.0 |
| 20260906093038 | 57 | 146 | 0.0 | 0.9 | 0.03 | 0.10 | 0.10 | 98 | 1014.0 |
| 20260906091537 | 58 | 146 | 0.0 | 0.9 | 0.06 | 0.10 | 0.10 | 98 | 1013.8 |
| 20260906090048 | 58 | 181 | 0.0 | 0.0 | 0.08 | 0.10 | 0.10 | 98 | 1013.7 |
| 20260906084535 | 58 | 181 | 0.0 | 0.9 | 0.07 | 0.09 | 0.09 | 98 | 1013.7 |
| 20260906083031 | 58 | 161 | 0.0 | 1.7 | 0.05 | 0.07 | 0.07 | 98 | 1013.6 |
| 20260906081530 | 59 | 136 | 0.0 | 1.7 | 0.02 | 0.04 | 0.04 | 98 | 1013.7 |
| 20260906080036 | 59 | 292 | 0.0 | 0.9 | 0.01 | 0.02 | 0.02 | 98 | 1013.6 |
| 20260906074524 | 59 | 293 | 0.0 | 0.0 | 0.01 | 0.02 | 0.02 | 98 | 1013.1 |
| 20260906073022 | 59 | 293 | 0.0 | 0.0 | 0.01 | 0.02 | 0.02 | 98 | 1013.0 |
| 20260906071526 | 60 | 293 | 0.0 | 0.0 | 0.01 | 0.02 | 0.02 | 98 | 1013.0 |
| 20260906070021 | 60 | 293 | 0.0 | 0.0 | 0.00 | 0.01 | 0.01 | 98 | 1013.0 |
| 20260906064520 | 60 | 293 | 0.0 | 0.9 | 0.00 | 0.01 | 0.01 | 98 | 1013.0 |
| 20260906063020 | 60 | 293 | 0.0 | 0.9 | 0.00 | 0.01 | 0.01 | 98 | 1012.9 |
| 20260906061519 | 60 | 293 | 0.0 | 0.9 | 0.00 | 0.01 | 0.01 | 98 | 1013.0 |
| 20260906060023 | 60 | 293 | 0.0 | 1.7 | 0.01 | 0.01 | 0.01 | 98 | 1013.0 |
| 20260906054517 | 60 | 292 | 0.0 | 2.6 | 0.01 | 0.01 | 0.01 | 98 | 1013.0 |
| 20260906053017 | 60 | 292 | 0.0 | 0.9 | 0.01 | 0.01 | 0.01 | 98 | 1013.0 |
| 20260906051517 | 60 | 292 | 0.0 | 2.6 | 0.01 | 0.01 | 0.01 | 98 | 1013.1 |
| 20260906050013 | 60 | 288 | 0.0 | 0.9 | 0.00 | 0.00 | 0.00 | 98 | 1013.1 |
| 20260906044516 | 60 | 287 | 0.0 | 0.9 | 0.00 | 0.00 | 0.00 | 98 | 1013.2 |
| 20260906043025 | 60 | 287 | 0.0 | 1.7 | 0.00 | 0.00 | 0.00 | 97 | 1013.1 |
| 20260906041509 | 61 | 294 | 0.0 | 1.7 | 0.00 | 0.00 | 0.00 | 97 | 1013.2 |
| 20260906040007 | 61 | 306 | 0.0 | 0.9 | 0.00 | 0.00 | 0.00 | 97 | 1013.1 |
| 20260906034506 | 61 | 130 | 0.0 | 0.0 | 0.00 | 0.00 | 0.00 | 97 | 1013.0 |
| 20260906033006 | 61 | 130 | 0.0 | 0.0 | 0.00 | 0.00 | 0.00 | 97 | 1012.9 |
| 20260906031510 | 61 | 130 | 0.0 | 0.0 | 0.00 | 0.00 | 0.00 | 97 | 1012.7 |
| 20260906030005 | 61 | 130 | 0.0 | 0.0 | 0.00 | 0.00 | 0.00 | 96 | 1012.9 |
| 20260906024504 | 61 | 130 | 0.0 | 0.0 | 0.00 | 0.00 | 0.00 | 96 | 1012.9 |
| 20260906023004 | 61 | 130 | 0.0 | 0.0 | 0.00 | 0.00 | 0.00 | 96 | 1012.7 |
| 20260906021505 | 61 | 130 | 0.0 | 0.0 | 0.00 | 0.00 | 0.00 | 96 | 1012.7 |
| 20260906020002 | 61 | 130 | 0.0 | 0.0 | 0.00 | 0.00 | 0.00 | 95 | 1012.7 |
| 20260906014504 | 62 | 130 | 0.0 | 0.0 | 0.00 | 0.00 | 0.00 | 95 | 1012.8 |
| 20260906013002 | 62 | 130 | 0.0 | 0.0 | 0.00 | 0.00 | 0.00 | 94 | 1012.9 |
| 20260906011601 | 62 | 130 | 0.0 | 0.0 | 0.00 | 0.00 | 0.00 | 94 | 1013.0 |
| 20260906010140 | 62 | 130 | 0.0 | 0.0 | 0.00 | 0.00 | 0.00 | 94 | 1012.8 |
| 20260906004614 | 62 | 130 | 0.0 | 0.0 | 0.00 | 0.00 | 0.00 | 93 | 1012.6 |
| 20260906003055 | 63 | 130 | 0.0 | 0.0 | 0.00 | 0.00 | 0.00 | 92 | 1012.5 |
| 20260906001603 | 63 | 130 | 0.0 | 0.0 | 0.00 | 0.00 | 0.00 | 90 | 1012.4 |
| 20260906000053 | 63 | 130 | 0.0 | 0.0 | 0.00 | 0.00 | 0.00 | 90 | 1012.5 |
| 20260905234552 | 63 | 130 | 0.0 | 0.0 | 0.00 | 0.00 | 0.00 | 89 | 1012.3 |
| 20260905233051 | 64 | 130 | 0.0 | 0.0 | 0.00 | 0.00 | 0.00 | 88 | 1012.2 |
| 20260905231550 | 64 | 130 | 0.0 | 0.0 | 0.00 | 0.00 | 0.00 | 87 | 1012.1 |
| 20260905230047 | 64 | 130 | 0.0 | 0.9 | 0.00 | 0.00 | 0.00 | 86 | 1011.8 |
| 20260905224547 | 64 | 130 | 0.0 | 0.9 | 0.00 | 0.00 | 0.00 | 85 | 1011.8 |
| 20260905223052 | 64 | 124 | 0.0 | 0.9 | 0.00 | 0.00 | 0.00 | 85 | 1011.6 |
| 20260905221544 | 64 | 124 | 0.0 | 1.7 | 0.00 | 0.00 | 0.00 | 85 | 1011.6 |
| 20260905220043 | 65 | 100 | 0.0 | 0.0 | 0.00 | 0.00 | 0.00 | 85 | 1011.6 |
| 20260905214544 | 64 | 99 | 0.0 | 0.0 | 0.00 | 0.00 | 0.00 | 86 | 1011.2 |
| 20260905213038 | 64 | 99 | 0.0 | 2.6 | 0.00 | 0.00 | 0.00 | 85 | 1011.0 |
| 20260905211537 | 65 | 103 | 0.0 | 3.5 | 0.00 | 0.00 | 0.00 | 85 | 1010.9 |
| 20260905210045 | 65 | 138 | 0.0 | 3.5 | 0.00 | 0.00 | 0.00 | 85 | 1010.8 |
| 20260905204535 | 67 | 35 | 0.0 | 7.8 | 0.00 | 0.00 | 0.00 | 81 | 1010.8 |
| 20260905203033 | 70 | 226 | 0.9 | 4.3 | 0.00 | 0.00 | 0.00 | 77 | 1010.5 |
| 20260905201532 | 69 | 162 | 0.0 | 3.5 | 0.00 | 0.00 | 0.00 | 77 | 1010.2 |
| 20260905200044 | 70 | 163 | 0.0 | 1.7 | 0.00 | 0.00 | 0.00 | 76 | 1010.1 |
| 20260905194529 | 71 | 137 | 0.0 | 5.2 | 0.00 | 0.00 | 0.00 | 75 | 1009.9 |
| 20260905193035 | 69 | 160 | 0.0 | 1.7 | 0.00 | 0.00 | 0.00 | 78 | 1009.9 |
| 20260905191528 | 69 | 159 | 0.0 | 5.2 | 0.00 | 0.00 | 0.00 | 78 | 1010.0 |
| 20260905190027 | 69 | 112 | 0.0 | 0.0 | 0.00 | 0.00 | 0.00 | 79 | 1010.1 |
| 20260905184534 | 69 | 119 | 0.0 | 2.6 | 0.00 | 0.00 | 0.00 | 80 | 1010.2 |
| 20260905183036 | 69 | 114 | 0.0 | 2.6 | 0.00 | 0.00 | 0.00 | 78 | 1010.0 |
| 20260905181526 | 70 | 73 | 0.0 | 4.3 | 0.00 | 0.00 | 0.00 | 79 | 1010.1 |
| 20260905180024 | 69 | 199 | 0.9 | 4.3 | 0.00 | 0.00 | 0.00 | 78 | 1010.1 |
| 20260905174525 | 71 | 151 | 0.0 | 3.5 | 0.00 | 0.00 | 0.00 | 74 | 1010.0 |
| 20260905173036 | 70 | 154 | 0.0 | 1.7 | 0.00 | 0.00 | 0.00 | 72 | 1009.9 |
| 20260905171522 | 71 | 142 | 1.7 | 4.3 | 0.00 | 0.00 | 0.00 | 72 | 1009.7 |
| 20260905170022 | 70 | 154 | 0.9 | 3.5 | 0.00 | 0.00 | 0.00 | 72 | 1009.8 |
| 20260905164522 | 70 | 293 | 0.0 | 0.9 | 0.00 | 0.00 | 0.00 | 75 | 1009.9 |
| 20260905163021 | 70 | 269 | 0.0 | 3.5 | 0.00 | 0.00 | 0.00 | 74 | 1009.8 |
| 20260905161520 | 71 | 156 | 0.9 | 7.8 | 0.00 | 0.00 | 0.00 | 72 | 1009.8 |
| 20260905160020 | 71 | 150 | 0.0 | 5.2 | 0.00 | 0.00 | 0.00 | 73 | 1009.9 |
| 20260905154515 | 70 | 212 | 0.0 | 3.5 | 0.00 | 0.00 | 0.00 | 78 | 1009.9 |
| 20260905153024 | 69 | 148 | 0.9 | 5.2 | 0.00 | 0.00 | 0.00 | 78 | 1010.0 |
| 20260905151512 | 69 | 295 | 0.0 | 2.6 | 0.00 | 0.00 | 0.00 | 79 | 1010.0 |
| 20260905150017 | 69 | 298 | 0.0 | 3.5 | 0.00 | 0.00 | 0.00 | 80 | 1009.9 |
| 20260905144513 | 68 | 295 | 0.0 | 1.7 | 0.00 | 0.00 | 0.00 | 82 | 1010.0 |
| 20260905143006 | 67 | 264 | 0.0 | 1.7 | 0.00 | 0.00 | 0.00 | 84 | 1010.1 |
| 20260905141504 | 67 | 295 | 0.0 | 0.9 | 0.00 | 0.00 | 0.00 | 85 | 1010.1 |
| 20260905140001 | 66 | 295 | 0.0 | 0.9 | 0.00 | 0.00 | 0.00 | 86 | 1010.1 |
| 20260905134559 | 66 | 295 | 0.0 | 0.9 | 0.00 | 0.00 | 0.00 | 87 | 1010.0 |
| 20260905133055 | 65 | 299 | 0.0 | 1.7 | 0.00 | 0.00 | 0.00 | 87 | 1009.8 |
| 20260905131602 | 65 | 295 | 0.0 | 1.7 | 0.00 | 0.00 | 0.00 | 88 | 1009.7 |
| 20260905130051 | 64 | 277 | 0.0 | 2.6 | 0.00 | 0.00 | 0.00 | 88 | 1009.5 |
| 20260905124548 | 64 | 274 | 0.0 | 2.6 | 0.00 | 0.00 | 0.00 | 88 | 1009.5 |
| 20260905123104 | 64 | 293 | 0.0 | 1.7 | 0.00 | 0.00 | 0.00 | 89 | 1009.2 |
| 20260905121544 | 63 | 286 | 0.0 | 0.9 | 0.00 | 0.00 | 0.00 | 89 | 1009.0 |
| 20260905120043 | 63 | 279 | 0.9 | 3.5 | 0.00 | 0.00 | 0.00 | 89 | 1009.0 |
| 20260905114545 | 63 | 281 | 0.0 | 2.6 | 0.00 | 0.00 | 0.00 | 90 | 1008.9 |
| 20260905113041 | 63 | 286 | 0.0 | 1.7 | 0.00 | 0.00 | 0.00 | 90 | 1008.7 |
| 20260905111541 | 62 | 298 | 0.0 | 3.5 | 0.00 | 0.00 | 0.00 | 91 | 1008.7 |
| 20260905110040 | 61 | 290 | 0.0 | 1.7 | 0.00 | 0.00 | 0.00 | 92 | 1008.6 |